Weather in Pushkino

Russia / Khabarovsk Krai     47°08′01″N   134°22′47″E
temp.,
°C
wind,
m/s
gust,
m/s
humid.,
%
clouds,
%
prec.,
mm/h
press.,
hPa
HPBL,
m
20 january, wed
wed2001:00−27s22910 0.0 103142
04:00−27sse23900 0.0 103152
07:00−28sse23880 0.0 103160
10:00−26sse34850 0.0 1031143
13:00−19s36790 0.0 1029316
16:00−18sse367632 0.0 1025296
19:00−20se2485100 0.0 1024106
22:00−16se3888100 0.0 1022310
21 january, thu
thu2101:00−15sse31095100 0.4 1019322
04:00−14s3995100 1.6 1017430
07:00−16wsw2797100 0.8 1018332
10:00−19wsw2599100 1.0 1020299
13:00−16wsw3789100 0.0 1022486
16:00−16wsw379095 0.0 1022497
19:00−20sw249684 0.0 102390
22:00−23ssw229443 0.0 102338
22 january, fri
fri2201:00−23s22930 0.0 102232
04:00−24ssw22910 0.0 102243
07:00−26ssw11930 0.0 102228
10:00−24wsw25930 0.0 1024197
13:00−21wsw36840 0.0 1024454
16:00−21wsw258917 0.0 1025450
19:00−24ssw229695 0.0 102736
22:00−25ssw229470 0.0 102849
23 january, sat
sat2301:00−26ssw22920 0.0 102943
04:00−26s22850 0.0 103134
07:00−26s22820 0.0 103129
10:00−23s23780 0.0 1032121
13:00−16ssw23670 0.0 1030312
16:00−15s23717 0.0 1029373
19:00−18se228389 0.0 102944
22:00−16sse227795 0.0 102961
24 january, sun
sun2401:00−19sse227766 0.0 102920
04:00−20s227850 0.0 103021
07:00−20s22820 0.0 102921
10:00−18s23820 0.0 103192
13:00−13sw237897 0.0 1030289
16:00−12wsw127990 0.0 1029309
19:00−17s11890 0.0 103020
22:00−18sw119115 0.0 103120